Location: Jackson Park
(37.2862°N, 79.9123°W)
Time: 20:41:04
(UTC+00:00)

Vanguard 3 - Pass Details

Date: 17 May 2026
Orbit: 507 x 3205 km, 33.4° (Epoch: 31 May)

Event Time Altitude Azimuth Distance (km) Brightness Sun altitude
Rises 22:28:10 0° 279° (W) 7,131 13.5 21.0°
Reaches altitude 10° 22:33:02 10° 277° (W) 6,126 14.0 20.0°
Maximum altitude 22:51:56 65° 202° (SSW) 2,903 10.3 16.3°
Drops below altitude 10° 23:04:48 10° 124° (SE) 4,349 10.3 13.8°
Sets 23:07:38 0° 121° (ESE) 5,040 10.6 13.3°
